Location: O'Brien
(30.0517°N, 82.9900°W)
Time: 16:40:30
(UTC-05:00)

ISS - Pass Details

Date: 20 November 2019
Orbit: 411 x 421 km, 51.6° (Epoch: 10 December)

Event Time Altitude Azimuth Distance (km) Brightness Sun altitude
Rises 18:32:14 0° 223° (SW) 2,336 1.1 -12.8°
Reaches altitude 10° 18:34:19 10° 223° (SW) 1,479 0.0 -13.2°
Maximum altitude 18:37:38 89° 316° (NW) 419 -3.8 -13.9°
Enters shadow 18:39:29 24° 43° (NE) 898 -2.6 -14.3°
